Flag Weather past 2 weeks in Fort Lauderdale, Florida, U.S.A.

Now
79 °F

Scattered clouds.


Feels Like: 81 °F
Forecast: 75 / 83 °F
Wind: No wind

Location: Fort Lauderdale / Hollywood International Airport

Current Time: Nov 24, 2014 at 7:37:10 AM

Latest Report: Nov 24, 2014 at 6:53 AM


Visibility: 9 mi

Pressure: 29.98 "Hg

Humidity: 69%

Dew point: 68 °F

Location of Fort LauderdaleLocation

Historic Weather in Fort Lauderdale — Graph

°F

Fort Lauderdale temperature yesterday

Maximum temperature yesterday: 83 °F (at 9:53 AM)
Minimum temperature yesterday: 78 °F (at 12:53 AM)
Average temperature yesterday: 81 °F

Past Weeks' High & Low Weather Summary

 TemperatureHumidityPressure
High87 °F (Nov 17, 2:53 PM)100% (Nov 19, 12:53 AM)30.22 "Hg (Nov 19, 12:53 AM)
Low56 °F (Nov 19, 3:53 AM)39% (Nov 11, 2:53 PM)29.82 "Hg (Nov 9, 1:53 PM)
Average73 °F77%30.03 "Hg
* Reported Nov 9 5:53 AM — Nov 24 5:53 AM, Fort Lauderdale, Weather by CustomWeather, © 2014

Note: Actual official high and low records may vary slightly from our data, if they occured in-between our weather recording intervals... More about our weather records

Advertising

Fort Lauderdale weather history for previous 24 hours

 ConditionsComfort  
Time TempWeatherWind HumidityBarometerVisibility
5:53 AM
Nov 24
79 °FPassing clouds.6 mph79%29.95 "Hg10 mi
4:53 AM79 °FPassing clouds.7 mph56%29.94 "Hg10 mi
4:00 AM79 °FPassing clouds.6 mph84%29.94 "Hg10 mi
2:53 AM79 °FRain. Partly cloudy.13 mph88%29.93 "Hg7 mi
1:53 AM80 °FPassing clouds.8 mph85%29.94 "Hg10 mi
12:53 AM79 °FPartly cloudy.9 mph84%29.94 "Hg10 mi
11:53 PM
Nov 23
81 °FPartly cloudy.14 mph77%29.95 "Hg10 mi
10:57 PM80 °FPassing clouds.8 mph79%29.96 "Hg10 mi
9:53 PM81 °FPassing clouds.8 mph77%29.96 "Hg10 mi
8:53 PM81 °FPartly cloudy.9 mph77%29.96 "Hg10 mi
7:53 PM81 °FPartly cloudy.9 mph79%29.96 "Hg10 mi
6:53 PM81 °FPartly cloudy.9 mph79%29.93 "Hg10 mi
5:53 PM81 °FPassing clouds.9 mph79%29.93 "Hg10 mi
4:53 PM81 °FPassing clouds.13 mph77%29.91 "Hg10 mi
3:53 PM81 °FScattered clouds.12 mph77%29.92 "Hg10 mi
2:53 PM83 °FBroken clouds.18 mph72%29.92 "Hg10 mi
1:53 PM83 °FBroken clouds.14 mph72%29.94 "Hg10 mi
12:53 PM83 °FBroken clouds.17 mph77%29.96 "Hg10 mi
11:53 AM83 °FPartly sunny.15 mph72%30.00 "Hg10 mi
10:53 AM83 °FBroken clouds.22 mph72%30.02 "Hg10 mi
9:53 AM83 °FScattered clouds.21 mph72%30.03 "Hg10 mi
8:53 AM81 °FBroken clouds.16 mph77%30.03 "Hg10 mi
7:53 AM79 °FBroken clouds.15 mph82%30.02 "Hg10 mi
Weather by CustomWeather, © 2014

See weather overviewHow to use our weather pages